FENGYUN 1C DEB, 38169

Orbit data source: Space-Track

FENGYUN 1C DEB, 38169 is space debris in SSO originally from a launch on Mon, 10 May 1999 UTC launched from the Taiyaun Space Center, China (TSC). Fengyun 1C debris stems from the Chinese weather satellite Fengyun-1C, which was intentionally destroyed by a Chinese anti-satellite missile in 2007. This event dramatically increased the amount of space debris, with thousands of trackable fragments posing hazards to satellites and human spaceflight. The Fengyun 1C debris cloud has become a focal point in discussions about space sustainability and the need for international regulations to prevent the creation of new debris.

Loading next visibility...
Identifier
38169, 1999-025ERS
Orbit
SSO
Country
Flag of CNCN / PRC
Related business
Manufacturer
Unknown
Mission
Spacecraft
Bus & Motor
Unknown
Mass
Unknown
Launch date (UTC)
1999-05-10 (27 years ago)
Launch vehicle
Unknown
Launch site
Taiyaun Space Center, China (TSC)
Object type
Payload
Rocket body
Debris
Shape & HBR
Unknown shape, 0.1 m
Radar Cross Section
Small (<0.1 m²)

Expand to show TLE details & history
Last TLE update: 11 hours ago

TLE from 11 hours ago
0 FENGYUN 1C DEB
1 38169U 99025ERS 26104.71863447  .00008256  00000-0  11937-2 0  9999
2 38169  98.9851  97.0643 0029112  47.0433 313.3208 14.76181029630800
Epoch: 2026-04-14T17:14Z
TLE epoch observation values (Epoch: 2026-04-14T17:14:50.018Z)
Latitude
-0°
Longitude
-4.53497°
Altitude
630.395 km
Speed
7.551 km/s
True Right ascension
06h 28m 15s
True Declination
0° 00' 00"
Sunlit
Object was in daylight at epoch
Visualization orbit readout
Latitude
Unknown
Longitude
Unknown
Altitude
Unknown
Speed
Unknown
Apparent Right ascension
Unknown
Apparent Declination
Unknown
Sunlit
N/A
Visualization observer readout
Local Sidereal Time
10:31:06
Azimuth
Unknown
Elevation
Unknown
Doppler factor
Unknown
Orbital elements
Apogee altitude
658.929 km
Perigee altitude
618.076 km
Semi-major axis
7,016.639 km
Eccentricity
0.00291
Inclination
98.9851°
RAAN
97.0643°
Arg. of periapsis
47.0433°
True anomaly
313.07749°
Mean anomaly
313.3208°
Eccentric anomaly
313.19921°
Mean motion
3.69275 °/min
Orbital period
97.49 mins
BSTAR
0.0011937
Loading maneuver chart data...
Computing Atmospheric mass density...

Documentation

Showing up to 5 results
|